DW3693 Weather Reports


Display with metric or nautical units.
time (UTC)temp
F
wind
direction
speed
MPH
gust
MPH
rain 1hr
in
rain 24hr
in
rain mn
in
humidity
%
barometer
mb
20260505102017 57 180 2.0 6.0 0.00 0.00 0.00 80 1011.7
20260505101015 57 270 3.0 11.0 0.00 0.00 0.00 80 1011.4
20260505100016 58 270 6.0 21.0 0.00 0.00 0.00 79 1011.4
20260505095015 58 180 6.0 13.0 0.00 0.00 0.00 79 1011.3
20260505094015 58 203 3.0 12.0 0.00 0.00 0.00 78 1011.3
20260505093016 59 293 4.0 12.0 0.00 0.00 0.00 78 1011.3
20260505092015 59 203 4.0 13.0 0.00 0.00 0.00 78 1011.2
20260505091016 60 158 3.0 11.0 0.00 0.00 0.00 77 1011.2
20260505090138 60 158 5.0 15.0 0.00 0.00 0.00 76 1010.8
20260505085038 61 270 5.0 15.0 0.00 0.00 0.00 75 1010.7
20260505084017 61 293 4.0 16.0 0.00 0.00 0.00 75 1010.5
20260505083037 61 270 5.0 13.0 0.00 0.00 0.00 74 1010.8
20260505082016 62 293 3.0 11.0 0.00 0.00 0.00 74 1010.8
20260505081018 62 270 3.0 9.0 0.00 0.00 0.00 74 1010.5
20260505080057 62 248 4.0 9.0 0.00 0.00 0.00 74 1010.6
20260505075017 63 203 4.0 18.0 0.00 0.00 0.00 75 1010.5
20260505074038 63 338 2.0 10.0 0.00 0.00 0.00 75 1010.5
20260505073016 63 270 3.0 12.0 0.00 0.00 0.00 75 1010.5
20260505072017 63 270 4.0 12.0 0.00 0.00 0.00 75 1010.3
20260505071018 64 0 3.0 11.0 0.00 0.00 0.00 75 1010.3
20260505070017 64 270 3.0 7.0 0.00 0.00 0.00 75 1010.3
20260505065018 64 0 2.0 6.0 0.00 0.00 0.00 75 1010.1
20260505064017 64 180 3.0 7.0 0.00 0.00 0.00 74 1010.1
20260505063018 65 293 3.0 7.0 0.00 0.00 0.00 73 1010.0
20260505062017 65 180 2.0 5.0 0.00 0.00 0.00 73 1010.1
20260505061017 65 270 2.0 7.0 0.00 0.00 0.00 72 1009.7
20260505060019 66 293 3.0 6.0 0.00 0.00 0.00 71 1009.9
20260505055017 66 270 2.0 7.0 0.00 0.00 0.00 70 1009.9
20260505054017 66 270 3.0 13.0 0.00 0.00 0.00 70 1009.7
20260505053018 66 270 4.0 14.0 0.00 0.00 0.00 70 1009.6
20260505052017 66 225 2.0 7.0 0.00 0.00 0.00 69 1009.8
20260505051017 67 248 3.0 10.0 0.00 0.00 0.00 68 1009.7
20260505041016 68 270 4.0 7.0 0.00 0.00 0.00 63 1008.9
20260505040038 68 135 2.0 6.0 0.00 0.00 0.00 62 1008.8
20260505035017 68 270 3.0 6.0 0.00 0.00 0.00 62 1008.6
20260505034017 68 293 3.0 10.0 0.00 0.00 0.00 61 1008.5
20260505033036 68 293 2.0 5.0 0.00 0.00 0.00 61 1008.4
20260505032016 69 270 2.0 6.0 0.00 0.00 0.00 60 1008.1
20260505031017 69 270 2.0 14.0 0.00 0.00 0.00 59 1008.1
20260505030036 69 315 2.0 4.0 0.00 0.00 0.00 59 1007.8
20260505025016 70 180 1.0 3.0 0.00 0.00 0.00 58 1007.7
20260505024016 70 203 2.0 5.0 0.00 0.00 0.00 58 1007.6
20260505023036 70 270 4.0 13.0 0.00 0.00 0.00 57 1007.5
20260505022056 71 248 4.0 18.0 0.00 0.00 0.00 57 1007.4
20260505021016 71 248 4.0 11.0 0.00 0.00 0.00 57 1007.4
20260505020016 72 270 5.0 15.0 0.00 0.00 0.00 56 1007.2
20260505015038 72 248 7.0 17.0 0.00 0.00 0.00 56 1007.1
20260505014017 72 270 5.0 16.0 0.00 0.00 0.00 56 1007.2
20260505013036 72 270 4.0 15.0 0.00 0.00 0.00 55 1007.1
20260505012018 72 270 6.0 19.0 0.00 0.00 0.00 56 1007.2
20260505011016 73 270 6.0 17.0 0.00 0.00 0.00 55 1007.2
20260505010016 73 248 5.0 17.0 0.00 0.00 0.00 56 1007.2
20260505005016 73 270 6.0 16.0 0.00 0.00 0.00 55 1007.2
20260505004018 73 225 7.0 21.0 0.00 0.00 0.00 53 1007.2
20260505003016 74 270 5.0 12.0 0.00 0.00 0.00 53 1007.3
20260505002016 74 270 8.0 16.0 0.00 0.00 0.00 52 1007.3
20260505001017 74 270 5.0 12.0 0.00 0.00 0.00 52 1007.1
20260505000016 74 270 5.0 18.0 0.00 0.00 0.00 53 1007.3
20260504235016 75 270 5.0 17.0 0.00 0.00 0.00 50 1007.3
20260504234015 75 270 6.0 16.0 0.00 0.00 0.00 50 1007.1
20260504233016 75 293 5.0 13.0 0.00 0.00 0.00 52 1007.0
20260504232016 75 293 6.0 20.0 0.00 0.00 0.00 50 1007.0
20260504231016 75 270 6.0 18.0 0.00 0.00 0.00 51 1007.0
20260504230016 75 270 7.0 17.0 0.00 0.00 0.00 51 1007.2
20260504225015 75 270 5.0 11.0 0.00 0.00 0.00 51 1007.3
20260504224015 75 270 5.0 12.0 0.00 0.00 0.00 50 1007.3
20260504223056 75 270 7.0 18.0 0.00 0.00 0.00 52 1007.4
20260504222016 75 270 8.0 17.0 0.00 0.00 0.00 51 1007.5
20260504221016 75 270 6.0 14.0 0.00 0.00 0.00 52 1007.6
20260504220016 75 270 7.0 13.0 0.00 0.00 0.00 52 1007.6
20260504215016 75 270 6.0 14.0 0.00 0.00 0.00 51 1007.6
20260504214015 75 248 4.0 11.0 0.00 0.00 0.00 53 1007.8
20260504213015 75 270 7.0 19.0 0.00 0.00 0.00 51 1008.0
20260504212016 75 293 7.0 16.0 0.00 0.00 0.00 49 1008.0
20260504211035 75 270 6.0 14.0 0.00 0.00 0.00 51 1008.0
20260504210017 75 248 5.0 15.0 0.00 0.00 0.00 52 1008.1
20260504205017 75 270 5.0 17.0 0.00 0.00 0.00 53 1008.2
20260504204017 74 270 6.0 15.0 0.00 0.00 0.00 50 1008.2
20260504203017 74 270 5.0 14.0 0.00 0.00 0.00 53 1008.4
20260504202017 74 270 6.0 18.0 0.00 0.00 0.00 49 1008.4
20260504201016 74 270 6.0 15.0 0.00 0.00 0.00 52 1008.5
20260504200017 74 270 6.0 18.0 0.00 0.00 0.00 52 1008.5
20260504195059 74 270 7.0 28.0 0.00 0.00 0.00 52 1008.6
20260504194018 73 270 4.0 11.0 0.00 0.00 0.00 53 1008.7
20260504193017 73 270 6.0 14.0 0.00 0.00 0.00 55 1008.7
20260504192037 72 225 4.0 15.0 0.00 0.00 0.00 53 1008.8
20260504191017 72 270 6.0 12.0 0.00 0.00 0.00 54 1008.9
20260504190017 72 248 5.0 14.0 0.00 0.00 0.00 55 1008.9
20260504185017 72 248 6.0 12.0 0.00 0.00 0.00 55 1009.0
20260504184038 72 293 4.0 14.0 0.00 0.00 0.00 54 1009.0
20260504183017 71 180 4.0 13.0 0.00 0.00 0.00 56 1009.1
20260504182017 71 315 5.0 13.0 0.00 0.00 0.00 57 1009.1
20260504181018 70 270 4.0 12.0 0.00 0.00 0.00 56 1009.2
20260504180016 70 270 5.0 14.0 0.00 0.00 0.00 57 1009.4
20260504175037 70 135 2.0 6.0 0.00 0.00 0.00 57 1009.4
20260504174017 69 270 3.0 10.0 0.00 0.00 0.00 60 1009.5
20260504173017 69 135 3.0 13.0 0.00 0.00 0.00 62 1009.5
20260504172017 68 270 3.0 8.0 0.00 0.00 0.00 58 1009.5
20260504171018 68 158 4.0 16.0 0.00 0.00 0.00 60 1009.4
20260504151017 64 270 4.0 18.0 0.00 0.00 0.00 67 1010.0
20260504141016 56 248 1.0 2.0 0.00 0.00 0.00 80 1009.8